Waarnemingen

Advertentie
Mijn weer
St-Girons, Frankrijk (7627): temperatuur & dauwpunt: 24.05.2020 10:00:00 - 30.05.2020 10:00:00 (CEST)St-Girons, Frankrijk (7627): temperatuur 5cm: 24.05.2020 10:00:00 - 30.05.2020 10:00:00 (CEST)St-Girons, Frankrijk (7627): temperatuur -20cm & temperatuur -100cm: 24.05.2020 10:00:00 - 30.05.2020 10:00:00 (CEST)St-Girons, Frankrijk (7627): windsnelheid & windstoten: 24.05.2020 10:00:00 - 30.05.2020 10:00:00 (CEST)St-Girons, Frankrijk (7627): windrichting: 24.05.2020 10:00:00 - 30.05.2020 10:00:00 (CEST)St-Girons, Frankrijk (7627): luchtdruk: 24.05.2020 10:00:00 - 30.05.2020 10:00:00 (CEST)St-Girons, Frankrijk (7627): zicht: 24.05.2020 10:00:00 - 30.05.2020 10:00:00 (CEST)St-Girons, Frankrijk (7627): Zonneschijnduur: 24.05.2020 10:00:00 - 30.05.2020 10:00:00 (CEST)St-Girons, Frankrijk (7627): neerslag: 24.05.2020 10:00:00 - 30.05.2020 10:00:00 (CEST)
Datum & Tijd tt [°C] td [°C] tt 5cm [°C] tt -20cm [°C] tt -100cm [°C] ff [km/u] ff [kn] fx [km/u] fx [kn] dd ppp [hPa] vv [km] sd [min] rr [mm]
30.05.2020 10:00:00 21,8 14,4 18,6 18,6 16,3 2 1 7 4 ONO 1014,5 20 60 0,0
30.05.2020 09:00:00 18,3 13,2 14,5 18,7 16,4 4 2 8 5 ZO 1015,1 20 60 0,0
30.05.2020 08:00:00 14,7 12,7 9,7 18,8 16,3 0 0 4 2 N 1015,8 20 50 0,0
30.05.2020 07:00:00 11,3 10,7 9,2 18,9 16,3 3 1 9 5 WNW 1016,1 20 0 0,0
30.05.2020 06:00:00 11,9 11,0 9,1 18,9 16,3 5 3 11 6 ZZO 1015,8 18 0 0,0
30.05.2020 05:00:00 12,6 10,3 10,1 19,0 16,4 0 0 20 11 N 1015,7 20 0 0,0
30.05.2020 04:00:00 14,9 11,5 11,6 19,0 16,3 10 6 22 12 ZO 1015,3 20 0 0,0
30.05.2020 03:00:00 14,8 10,8 12,3 19,0 16,3 9 5 24 13 ZO 1015,5 20 0 0,0
30.05.2020 02:00:00 16,2 12,2 12,8 19,1 16,3 9 5 22 12 OZO 1015,4 20 0 0,0
30.05.2020 01:00:00 16,9 12,4 13,1 19,1 16,3 9 5 21 11 OZO 1015,5 20 0 0,0
30.05.2020 00:00:00 17,5 12,6 12,8 19,1 16,3 9 5 17 9 ZO 1015,5 20 0 0,0
29.05.2020 23:00:00 19,1 12,8 13,5 19,1 16,3 5 3 16 9 ZO 1015,2 20 0 0,0
29.05.2020 22:00:00 20,3 13,3 15,1 19,0 16,3 4 2 10 6 ZZO 1014,4 20 0 0,0
29.05.2020 21:00:00 20,7 14,6 18,8 19,0 16,3 5 3 8 4 WZW 1013,8 20 31 0,0
29.05.2020 20:00:00 26,1 11,8 22,7 18,8 16,3 5 3 13 7 NNO 1012,7 20 60 0,0
29.05.2020 19:00:00 27,0 12,2 26,6 18,8 16,3 7 4 19 10 NNO 1012,3 20 60 0,0
29.05.2020 18:00:00 27,5 10,7 31,7 18,6 16,3 6 4 16 9 NNO 1012,7 20 60 0,0
29.05.2020 17:00:00 27,0 11,1 34,4 18,5 16,3 9 5 19 10 NNW 1013,0 20 58 0,0
29.05.2020 16:00:00 27,5 11,1 38,1 18,4 16,3 9 5 18 10 ONO 1013,3 20 60 0,0
29.05.2020 15:00:00 27,1 10,7 40,6 18,3 16,3 8 4 21 11 NNW 1013,8 20 60 0,0
29.05.2020 14:00:00 26,5 8,5 42,2 18,3 16,3 10 5 23 12 N 1014,3 20 60 0,0
29.05.2020 13:00:00 26,4 12,5 39,4 18,3 16,3 5 3 19 10 NNW 1014,8 20 60 0,0
29.05.2020 12:00:00 25,2 10,3 32,5 18,3 16,2 4 2 22 12 N 1015,7 19 60 0,0
29.05.2020 11:00:00 24,9 13,4 24,7 18,3 16,2 3 2 8 4 NNO 1015,9 18 60 0,0
29.05.2020 10:00:00 23,1 14,4 18,9 18,4 16,3 0 0 7 4 N 1016,6 20 60 0,0
29.05.2020 09:00:00 18,9 13,3 14,4 18,5 16,3 0 0 6 3 N 1017,6 20 60 0,0
29.05.2020 08:00:00 14,7 12,2 9,2 18,6 16,3 0 0 4 2 N 1018,5 20 49 0,0
29.05.2020 07:00:00 11,3 10,5 8,3 18,7 16,3 0 0 8 4 N 1019,3 20 0 0,0
29.05.2020 06:00:00 11,1 10,3 8,4 18,7 16,2 4 2 9 5 W 1019,2 20 0 0,0
29.05.2020 05:00:00 12,1 10,2 9,2 18,8 16,3 3 2 22 12 ZZW 1019,1 20 0 0,0
29.05.2020 04:00:00 13,0 10,4 9,2 18,9 16,3 3 2 17 9 ZW 1019,5 20 0 0,0
29.05.2020 03:00:00 13,3 10,8 9,6 18,9 16,2 6 4 14 8 Z 1019,6 20 0 0,0
29.05.2020 02:00:00 13,0 11,2 10,0 19,0 16,2 5 3 12 6 Z 1020,4 20 0 0,0
29.05.2020 01:00:00 13,0 11,2 10,2 19,0 16,2 2 1 7 4 W 1021,1 20 0 0,0
29.05.2020 00:00:00 14,1 11,3 11,2 19,0 16,2 4 2 8 4 Z 1021,2 20 0 0,0
28.05.2020 23:00:00 15,5 12,1 12,1 19,0 16,2 2 1 5 3 Z 1021,2 20 0 0,0
28.05.2020 22:00:00 17,4 11,9 13,5 18,9 16,2 2 1 7 4 ZO 1020,6 20 0 0,0
28.05.2020 21:00:00 20,1 12,8 17,4 18,9 16,2 5 3 10 5 W 1019,9 20 49 0,0
28.05.2020 20:00:00 25,5 9,7 22,1 18,8 16,2 4 2 15 8 NNO 1019,3 20 60 0,0
28.05.2020 19:00:00 26,1 9,9 25,7 18,7 16,2 7 4 17 9 ONO 1019,2 20 60 0,0
28.05.2020 18:00:00 26,5 10,6 31,1 18,5 16,2 8 4 21 11 NO 1019,6 20 60 0,0
28.05.2020 17:00:00 27,1 11,2 36,7 18,4 16,2 7 4 23 13 NNO 1019,8 20 60 0,0
28.05.2020 16:00:00 27,2 11,2 38,8 18,3 16,2 8 4 19 10 NNO 1020,3 20 60 0,0
28.05.2020 15:00:00 26,7 12,0 42,2 18,2 16,2 10 5 19 11 NNO 1021,0 20 60 0,0
28.05.2020 14:00:00 26,4 14,5 40,6 18,2 16,2 6 3 16 8 NNO 1021,4 20 60 0,0
28.05.2020 13:00:00 25,9 14,7 39,3 18,1 16,2 5 3 13 7 N 1022,1 19 60 0,0
28.05.2020 12:00:00 24,1 15,3 32,7 18,2 16,2 6 3 13 7 NW 1023,0 11 60 0,0
28.05.2020 11:00:00 22,4 14,8 24,5 18,2 16,1 7 4 14 7 N 1023,8 20 60 0,0
28.05.2020 10:00:00 21,3 15,6 18,8 18,3 16,1 2 1 8 5 W 1024,3 20 60 0,0
28.05.2020 09:00:00 18,0 14,3 14,8 18,4 16,2 0 0 6 3 N 1025,0 20 60 0,0
28.05.2020 08:00:00 14,7 13,7 9,5 18,4 16,1 2 1 4 2 WNW 1025,3 20 49 0,0
28.05.2020 07:00:00 11,2 10,7 8,6 18,5 16,1 0 0 4 2 N 1026,1 17 0 0,0
28.05.2020 06:00:00 11,5 10,7 9,0 18,6 16,1 0 0 6 4 N 1026,2 20 0 0,0
28.05.2020 05:00:00 12,4 11,6 9,5 18,7 16,1 3 1 15 8 W 1025,9 20 0 0,0
28.05.2020 04:00:00 14,8 12,3 10,4 18,7 16,1 10 5 23 13 ZZO 1025,6 20 0 0,0
28.05.2020 03:00:00 13,4 12,6 10,3 18,8 16,1 6 3 10 6 Z 1025,9 20 0 0,0
28.05.2020 02:00:00 12,9 11,8 10,7 18,8 16,1 5 3 8 5 W 1026,5 20 0 0,0
28.05.2020 01:00:00 14,0 12,0 11,4 18,8 16,1 0 0 16 9 N 1026,7 20 0 0,0
28.05.2020 00:00:00 16,7 13,2 12,7 18,8 16,1 6 4 18 10 ZO 1026,5 20 0 0,0
27.05.2020 23:00:00 17,3 12,6 12,6 18,8 16,1 6 4 14 8 ZO 1026,5 20 0 0,0
27.05.2020 22:00:00 19,8 11,3 13,9 18,7 16,1 7 4 14 8 OZO 1025,6 20 0 0,0
27.05.2020 21:00:00 22,0 12,0 17,4 18,6 16,1 3 2 21 11 OZO 1024,9 20 48 0,0
27.05.2020 20:00:00 23,8 13,1 21,9 18,6 16,1 8 4 32 17 ONO 1024,2 20 60 0,0
27.05.2020 19:00:00 24,9 14,1 26,1 18,5 16,1 13 7 24 13 ONO 1023,7 20 60 0,0
27.05.2020 18:00:00 25,8 12,6 31,7 18,3 16,1 13 7 22 12 ONO 1023,8 20 60 0,0
27.05.2020 17:00:00 26,4 12,8 30,4 18,2 16,1 12 6 22 12 NO 1023,9 20 49 0,0
27.05.2020 16:00:00 26,6 13,7 31,6 18,1 16,1 8 4 24 13 OZO 1024,0 20 52 0,0
27.05.2020 15:00:00 26,2 14,0 33,2 18,0 16,1 9 5 23 12 O 1024,5 20 44 0,0
27.05.2020 14:00:00 25,8 14,3 35,0 18,0 16,1 6 3 22 12 NNO 1024,8 20 55 0,0
27.05.2020 13:00:00 25,4 14,2 35,5 18,0 16,1 7 4 17 9 ONO 1025,2 20 55 0,0
27.05.2020 12:00:00 25,0 14,2 31,7 18,0 16,1 3 2 14 8 O 1025,3 20 60 0,0
27.05.2020 11:00:00 24,1 13,0 24,7 18,0 16,0 3 1 10 5 OZO 1025,6 20 60 0,0
27.05.2020 10:00:00 22,3 13,4 18,6 18,1 16,1 5 3 10 5 ZO 1025,7 20 60 0,0
27.05.2020 09:00:00 18,8 13,0 14,3 18,2 16,0 6 3 10 5 OZO 1026,4 20 60 0,0
27.05.2020 08:00:00 14,5 12,9 9,0 18,3 16,1 0 0 4 2 N 1027,5 20 48 0,2
27.05.2020 07:00:00 11,1 10,6 8,4 18,3 16,1 0 0 4 2 N 1027,7 20 0 0,0
27.05.2020 06:00:00 11,6 10,8 8,6 18,4 16,0 0 0 11 6 N 1027,2 20 0 0,0
27.05.2020 05:00:00 12,2 10,6 9,2 18,4 16,0 4 2 19 10 Z 1027,0 20 0 0,0
27.05.2020 04:00:00 13,6 12,2 9,1 18,5 16,0 9 5 15 8 ZZO 1027,0 20 0 0,0
27.05.2020 03:00:00 12,1 11,6 9,2 18,5 16,0 2 1 6 3 W 1027,7 20 0 0,0
27.05.2020 02:00:00 12,2 11,3 9,7 18,7 16,0 3 1 5 3 W 1028,0 20 0 0,0
27.05.2020 01:00:00 13,5 12,1 10,6 18,6 16,0 2 1 3 2 Z 1028,1 20 0 0,0
27.05.2020 00:00:00 14,8 12,8 12,0 18,6 16,1 0 0 3 1 N 1028,2 20 0 0,0
26.05.2020 23:00:00 16,8 13,5 14,3 18,5 16,0 0 0 4 2 N 1027,8 20 0 0,0
26.05.2020 22:00:00 18,1 14,8 15,7 18,4 16,0 4 2 7 4 WZW 1027,0 9 0 0,0
26.05.2020 21:00:00 21,6 15,4 20,6 18,4 16,0 3 2 9 5 W 1026,0 20 34 0,0
26.05.2020 20:00:00 24,0 13,5 23,2 18,2 16,0 8 4 12 6 WNW 1025,2 20 58 0,0
26.05.2020 19:00:00 25,0 12,9 25,4 18,1 16,0 9 5 18 10 NW 1025,2 20 38 0,0
26.05.2020 18:00:00 25,5 13,4 31,6 18,0 16,0 12 7 22 12 NNW 1025,3 20 58 0,0
26.05.2020 17:00:00 25,4 12,6 36,5 17,9 16,0 14 8 22 12 WNW 1025,5 20 60 0,0
26.05.2020 16:00:00 25,1 13,3 36,2 17,8 16,0 9 5 20 11 NW 1025,8 20 57 0,0
26.05.2020 15:00:00 24,6 12,5 39,1 17,7 16,0 11 6 24 13 N 1026,1 20 60 0,0
26.05.2020 14:00:00 24,8 12,1 39,8 17,6 16,0 8 4 19 11 N 1026,4 20 60 0,0
26.05.2020 13:00:00 23,9 12,2 39,0 17,6 16,0 7 4 22 12 N 1026,8 20 60 0,0
26.05.2020 12:00:00 22,9 13,1 31,8 17,7 16,0 10 5 21 11 NNW 1027,1 20 60 0,0
26.05.2020 11:00:00 22,4 13,2 23,4 17,7 16,0 5 3 12 7 N 1027,4 20 60 0,0
26.05.2020 10:00:00 20,4 13,8 18,1 17,8 16,0 2 1 7 4 NW 1027,7 20 60 0,0
26.05.2020 09:00:00 17,0 13,3 13,3 17,9 16,0 3 2 5 3 NNW 1028,2 20 60 0,0
26.05.2020 08:00:00 13,0 12,1 7,9 18,0 16,0 2 1 4 2 NW 1028,9 20 49 0,0
26.05.2020 07:00:00 9,3 9,2 7,2 18,0 16,0 3 1 5 3 WNW 1029,5 20 0 0,0
26.05.2020 06:00:00 9,3 8,7 7,2 18,1 16,0 2 1 5 3 ZW 1029,3 20 0 0,0
26.05.2020 05:00:00 9,9 9,4 7,4 18,2 16,0 2 1 5 3 WZW 1028,9 20 0 0,0
26.05.2020 04:00:00 10,3 9,8 8,0 18,2 16,0 3 2 6 3 WNW 1028,9 20 0 0,0
26.05.2020 03:00:00 10,7 10,1 8,2 18,3 16,0 4 2 5 3 W 1029,0 20 0 0,0
26.05.2020 02:00:00 10,9 10,0 8,7 18,3 16,0 0 0 4 2 N 1029,1 20 0 0,0
26.05.2020 01:00:00 12,0 10,4 9,4 18,3 16,0 0 0 5 3 N 1029,2 20 0 0,0
26.05.2020 00:00:00 12,8 10,9 10,1 18,3 16,0 0 0 4 2 N 1029,0 20 0 0,0
25.05.2020 23:00:00 14,3 11,4 11,2 18,3 15,9 0 0 5 3 N 1028,6 20 0 0,0
25.05.2020 22:00:00 16,6 11,7 13,1 18,3 16,0 2 1 8 4 ZZO 1027,7 20 0 0,0
25.05.2020 21:00:00 20,0 12,5 16,8 18,2 16,0 4 2 9 5 W 1026,5 20 48 0,0
25.05.2020 20:00:00 23,5 9,8 21,0 18,1 15,9 5 3 14 7 N 1025,4 20 60 0,0
25.05.2020 19:00:00 24,3 10,2 25,4 18,0 15,9 7 4 16 8 N 1025,0 20 56 0,0
25.05.2020 18:00:00 24,7 11,3 29,5 17,9 16,0 8 4 16 8 N 1024,9 20 60 0,0
25.05.2020 17:00:00 24,5 11,4 34,9 17,7 15,9 8 4 16 9 N 1024,9 20 60 0,0
25.05.2020 16:00:00 24,4 13,0 37,1 17,6 15,9 8 5 22 12 NNO 1025,0 20 60 0,0
25.05.2020 15:00:00 24,2 12,5 37,1 17,5 15,9 7 4 18 10 N 1025,1 18 60 0,0
25.05.2020 14:00:00 23,5 11,9 38,5 17,5 15,9 5 3 16 9 N 1025,6 19 60 0,0
25.05.2020 13:00:00 22,4 10,5 36,5 17,5 15,9 5 3 13 7 NNW 1025,9 20 60 -
25.05.2020 12:00:00 21,6 11,0 30,3 17,5 15,9 5 3 14 7 NW 1026,3 20 60 0,0
25.05.2020 11:00:00 21,8 10,6 24,0 17,6 15,9 4 2 10 5 O 1026,5 20 60 0,0
25.05.2020 10:00:00 20,1 11,3 17,7 17,7 15,9 5 3 9 5 OZO 1026,9 20 43 0,0
25.05.2020 09:00:00 16,6 12,5 14,0 17,8 15,9 0 0 5 3 N 1027,4 20 50 0,0
25.05.2020 08:00:00 13,8 11,7 8,2 17,9 15,9 3 2 8 4 ZO 1028,2 20 50 0,0
25.05.2020 07:00:00 9,1 8,6 6,7 17,9 15,9 2 1 5 3 ZZO 1029,0 20 10 0,0
25.05.2020 06:00:00 8,5 7,9 6,7 18,0 15,9 0 0 5 3 N 1029,2 20 0 0,0
25.05.2020 05:00:00 8,6 7,8 7,0 18,1 15,9 0 0 6 3 N 1029,0 20 0 0,0
25.05.2020 04:00:00 9,2 8,4 7,8 18,1 15,9 0 0 4 2 N 1029,1 20 0 0,0
25.05.2020 03:00:00 9,5 8,6 8,1 18,1 15,9 3 1 4 2 W 1029,2 20 0 0,0
25.05.2020 02:00:00 10,3 9,1 8,4 18,2 15,9 0 0 7 4 N 1029,2 20 0 0,0
25.05.2020 01:00:00 11,6 9,8 9,5 18,2 15,9 4 2 7 4 ZZW 1029,4 20 0 0,0
25.05.2020 00:00:00 13,6 10,9 13,2 18,2 15,9 0 0 4 2 N 1029,7 20 0 0,0
24.05.2020 23:00:00 14,6 11,0 13,1 18,2 15,9 0 0 4 2 N 1029,9 20 0 0,0
24.05.2020 22:00:00 15,9 11,5 16,0 18,1 15,9 3 2 7 4 W 1029,4 20 0 0,0
24.05.2020 21:00:00 17,3 9,7 17,5 18,1 15,9 4 2 7 4 NW 1028,7 20 13 0,0
24.05.2020 20:00:00 19,5 7,9 19,3 18,0 15,9 5 3 12 7 NO 1028,1 20 47 0,0
24.05.2020 19:00:00 20,2 8,2 22,9 17,9 15,9 6 3 15 8 NO 1028,0 20 58 0,0
24.05.2020 18:00:00 20,0 9,3 24,6 17,9 15,9 7 4 18 10 N 1028,3 20 43 0,0
24.05.2020 17:00:00 20,6 10,1 25,9 17,8 15,9 5 3 14 7 NW 1028,7 19 46 0,0
24.05.2020 16:00:00 20,1 10,2 30,3 17,7 15,8 6 3 19 10 NNO 1029,5 20 52 0,0
24.05.2020 15:00:00 19,4 10,7 27,8 17,7 15,8 5 3 15 8 N 1030,0 20 53 0,0
24.05.2020 14:00:00 18,3 11,1 22,0 17,7 15,8 3 2 14 8 Z 1031,0 20 13 0,0
24.05.2020 13:00:00 17,0 8,7 24,0 17,7 15,8 3 2 11 6 WNW 1031,5 20 17 0,0
24.05.2020 12:00:00 17,5 8,6 26,7 17,7 15,8 3 2 15 8 Z 1031,6 20 49 0,0
24.05.2020 11:00:00 16,8 8,0 18,1 17,8 15,8 7 4 16 8 O 1032,1 20 41 0,0
24.05.2020 10:00:00 14,6 9,4 17,3 17,8 15,8 2 1 8 5 O 1032,9 20 24 0,0

tt = temperatuur
td = dauwpunt
tt 5cm = temperatuur 5cm
tt -20cm = temperatuur -20cm
tt -100cm = temperatuur -100cm
ff = windsnelheid
fx = windstoten
dd = windrichting
ppp = luchtdruk
vv = zicht
sd = Zonneschijnduur
rr = neerslag

Weerstations in de omgeving